User: anonymous   Login
Location: Unspecified
(0.0000°N, 0.0000°E)
Time: 14:35:36
(UTC+00:00)
Language:

USA 135 - Orbit

View from above orbital plane
View from above orbital plane
View from above satellite
View from above satellite

Ground track
Ground track

The orbit data is extracted from the following two-line orbital elements,

1 25019U 97065A   17056.00479000 0.00000000  00000-0  00000-0 0    06
2 25019   8.7166  45.0236 0007165 215.4766 144.4862  1.00270000    06
Epoch (UTC): 25 February 2017 00:06:53
Eccentricity: 0.0007165
inclination: 8.7166°
perigee height: 35756 km
apogee height: 35817 km
right ascension of ascending node: 45.0236°
argument of perigee: 215.4766°
revolutions per day: 1.00270000
mean anomaly at epoch: 144.4862°
orbit number at epoch: 0

The dashed part of the orbit path shows where the satellite is in the earth's shadow,  

DLR